Location: Weatherford
(35.5260°N, 98.7070°W)
Time: 07:11:06
(UTC-05:00)

OPAL - Visible Passes

Search period start: 23 August 2017 00:00
Search period end: 02 September 2017 00:00
Orbit: 743 x 796 km, 100.2° (Epoch: 23 August)

Date Brightness Start Highest point End Pass type
(mag) Time Alt. Az. Time Alt. Az. Time Alt. Az.
25 Aug 10.3 20:49:21 10° SW 20:52:54 19° W 20:56:25 10° NW visible
28 Aug 10.0 20:41:15 10° SSW 20:45:17 24° W 20:49:18 10° NW visible
30 Aug 10.5 21:11:19 10° WSW 21:13:24 12° W 21:15:29 10° WNW visible
31 Aug 9.6 20:33:18 10° SSW 20:37:40 30° W 20:42:02 10° NW visible
